Portland Hillsboro, OR

12:40 PM PST on December 12, 2017 (GMT -0800)
Portland-Hillsboro

Weather History for KHIO - January, 2013

Change the Weather History Date:

Wednesday, January 16, 2013

  Actual Average Record
Temperature  
Mean Temperature 33 °F 40 °F  
Max Temperature 35 °F 47 °F 58 °F (1965)
Min Temperature 31 °F 34 °F 15 °F (1930)
Degree Days  
Heating Degree Days 32 25  
Month to date heating degree days 474 412  
Since 1 July heating degree days 2331 2533  
Cooling Degree Days 0 0  
Month to date cooling degree days 0 0  
Year to date cooling degree days 0 0  
Moisture  
Dew Point 31 °F    
Average Humidity 95    
Maximum Humidity 100    
Minimum Humidity 89    
Precipitation  
Precipitation 0.00 in 0.20 in 1.82 in (1974)
Month to date precipitation 0.56 3.45  
Year to date precipitation 0.56 3.45  
Snow  
Snow 0.00 in - - ()
Month to date snowfall 0.0  
Since 1 July snowfall 0.0  
Snow Depth 0.00 in    
Sea Level Pressure  
Sea Level Pressure 30.60 in    
Wind  
Wind Speed 1 mph (NE)    
Max Wind Speed 6 mph    
Max Gust Speed 7 mph    
Visibility 3 miles    
Events Fog    
T = Trace of Precipitation, MM = Missing Value Source: NWS Daily Summary

Daily Weather History Graph

Daily Weather History Graph

Search for Another Location

Airport or City:

Trip Planner

Search our weather history database for the weather conditions in past years. The results will help you decide how hot, cold, wet, or windy it might be!

Date:

Astronomy

Jan. 16, 2013 Rise Set
Actual Time 7:47 AM PST 4:56 PM PST
Civil Twilight 7:14 AM PST 5:29 PM PST
Nautical Twilight 6:37 AM PST 6:06 PM PST
Astronomical Twilight 6:02 AM PST 6:41 PM PST
Moon 10:07 AM PST (1/16) 11:14 PM PST (1/16)
Length of Visible Light 10h 15m
Length of Day
9h 09m
Waxing Crescent, 29% of the Moon is Illuminated
Jan 16
Waxing Crescent
Jan 18
First Quarter
Jan 26
Full
Feb 3
Last Quarter
Feb 9
New

Hourly Weather History & Observations

Time (PST) Temp. Windchill Dew Point Humidity Pressure Visibility Wind Dir Wind Speed Gust Speed Precip Events Conditions
12:53 AM 35.1 °F - 32.0 °F 89% 30.66 in 10.0 mi Calm Calm - N/A   Overcast
1:53 AM 35.1 °F 31.0 °F 32.0 °F 89% 30.67 in 10.0 mi NW 4.6 mph - N/A   Overcast
2:53 AM 35.1 °F - 32.0 °F 89% 30.67 in 10.0 mi Calm Calm - N/A   Overcast
4:53 AM 34.0 °F 31.0 °F 32.0 °F 92% 30.65 in 9.0 mi North 3.5 mph - N/A   Overcast
5:53 AM 34.0 °F 31.0 °F 30.9 °F 89% 30.64 in 8.0 mi NNW 3.5 mph - N/A   Overcast
6:53 AM 34.0 °F - 30.9 °F 89% 30.64 in 4.0 mi Calm Calm - N/A   Overcast
7:53 AM 34.0 °F - 30.9 °F 89% 30.65 in 4.0 mi Calm Calm - N/A   Overcast
8:53 AM 33.1 °F - 30.9 °F 92% 30.66 in 3.0 mi Calm Calm - N/A   Overcast
9:00 AM 33.1 °F 30.0 °F 30.9 °F 92% 30.64 in 2.5 mi East 3.5 mph - N/A   Overcast
9:05 AM 33.1 °F 30.0 °F 30.9 °F 92% 30.64 in 2.5 mi East 3.5 mph - N/A   Overcast
9:13 AM 33.1 °F - 32.0 °F 96% 30.64 in 1.5 mi Calm Calm - N/A   Overcast
9:53 AM 33.1 °F - 32.0 °F 96% 30.65 in 1.5 mi Calm Calm - N/A   Overcast
10:53 AM 33.1 °F - 32.0 °F 96% 30.63 in 1.0 mi Calm Calm - N/A   Overcast
11:53 AM 33.1 °F - 32.0 °F 96% 30.61 in 1.0 mi Calm Calm - N/A   Overcast
12:53 PM 33.1 °F - 32.0 °F 96% 30.59 in 2.0 mi Calm Calm - N/A   Overcast
1:53 PM 34.0 °F - 32.0 °F 92% 30.58 in 2.0 mi Calm Calm - N/A   Overcast
3:53 PM 34.0 °F - 32.0 °F 92% 30.57 in 2.0 mi Calm Calm - N/A   Overcast
4:53 PM 33.1 °F 30.0 °F 30.9 °F 92% 30.55 in 2.5 mi NE 3.5 mph - N/A   Overcast
5:53 PM 33.1 °F 30.0 °F 30.9 °F 92% 30.54 in 2.0 mi ESE 3.5 mph - N/A   Overcast
6:53 PM 33.1 °F 30.0 °F 32.0 °F 96% 30.55 in 2.0 mi Variable 3.5 mph - N/A   Overcast
7:53 PM 32.0 °F 27.5 °F 30.9 °F 96% 30.55 in 1.0 mi ENE 4.6 mph - N/A   Overcast
8:53 PM 32.0 °F - 30.9 °F 96% 30.54 in 1.2 mi Calm Calm - N/A   Overcast
9:53 PM 30.9 °F - 30.9 °F 100% 30.54 in 1.2 mi Calm Calm - N/A   Overcast
10:09 PM 30.9 °F - 30.9 °F 100% 30.52 in 0.8 mi Calm Calm - N/A   Mist
10:53 PM 30.9 °F - 30.9 °F 100% 30.53 in 0.8 mi Calm Calm - N/A   Mist
11:53 PM 30.9 °F - 30.9 °F 100% 30.52 in 0.5 mi Calm Calm - N/A Fog Light Freezing Fog